User: anonymous   Login
Location: Unspecified
(0.0000°N, 0.0000°E)
Time: 00:13:02
(UTC+00:00)
Language:

STARLINK-33943 - Orbit

View from above orbital plane
View from above orbital plane
View from above satellite
View from above satellite

Ground track
Ground track

The orbit is defined by the following mean orbital elements,

1 63884U          26145.43714903 +.00000000 +00000-0 +14682-3 0 00005
2 63884  70.0022  40.7734 0002809 269.4576  90.6262 14.98331178    05
Epoch (UTC): 25 May 2026 10:29:29
Eccentricity: 0.0002809
inclination: 70.0022°
perigee height: 570 km
apogee height: 574 km
right ascension of ascending node: 40.7734°
argument of perigee: 269.4576°
revolutions per day: 14.98331178
mean anomaly at epoch: 90.6262°

The dashed part of the orbit path shows where the satellite is in the earth's shadow,  

DLR